Theta_e
305 305 305 305 305 305 306 305 305 305 305 304 304 304 304 304 304 304 304 304 304 304 304 304 304 304 304 304 305 305 305 307 308 308 308 306 305 305 305 305 305 305 305 306 307 308 309 309 310 311 311 312 313 313 313 313 313 314 316 315 314 315 314 315 315 314 313 312 314 316 316 316 317 317 314 312 314 314 313 312 310 308 305 302 301 302 303 304
305 305 305 305 305 305 305 305 305 304 304 304 303 303 304 304 304 304 304 305 304 304 304 304 304 304 304 304 305 305 305 308 308 308 307 304 304 305 305 305 305 305 305 308 309 308 308 309 310 310 310 311 312 311 311 311 311 313 314 313 313 315 314 313 313 312 311 311 312 313 315 315 317 317 313 313 315 315 314 313 312 309 305 302 301 302 303 304
305 305 305 305 305 305 305 305 304 304 304 304 303 303 304 304 303 304 304 305 305 304 304 304 304 304 304 304 305 305 306 308 308 308 306 304 304 304 305 305 305 305 306 308 308 308 309 309 310 310 309 310 310 310 311 310 310 311 313 313 313 313 312 311 311 310 310 310 310 312 313 314 315 314 312 313 315 315 314 312 312 311 308 304 302 302 303 304
305 305 305 305 305 305 305 304 304 304 304 304 304 304 304 304 304 304 304 305 305 305 304 304 304 304 304 304 305 306 307 308 307 307 305 304 304 304 305 305 305 305 306 307 308 308 309 308 309 309 309 309 310 310 310 310 310 311 311 311 312 311 311 311 310 309 309 308 309 311 311 312 314 312 311 312 313 313 309 306 306 306 306 305 303 303 304 304
305 305 305 305 305 305 304 304 304 304 304 304 304 304 304 304 304 304 304 304 304 305 305 304 304 304 304 304 305 307 309 309 308 306 305 304 304 304 304 304 305 305 306 307 307 308 308 308 309 308 309 309 310 310 310 310 309 310 310 310 311 310 309 309 308 307 307 307 308 310 310 311 312 311 311 310 310 309 304 301 302 302 303 304 303 303 303 304
305 305 305 305 305 305 304 304 304 304 305 305 305 305 304 304 304 304 304 304 304 305 304 304 304 304 305 304 305 308 311 310 307 305 304 303 304 304 304 304 304 305 306 307 308 308 308 308 308 308 309 309 310 311 310 310 309 309 309 310 310 309 309 308 306 305 305 307 308 309 309 309 310 310 309 307 304 302 300 300 301 301 302 303 303 303 302 303
305 305 305 305 305 304 304 304 304 305 305 305 306 305 305 304 304 304 304 304 304 304 304 304 304 305 305 305 307 310 312 309 306 304 304 304 304 304 304 304 304 304 306 308 308 308 308 308 308 308 309 309 310 310 310 309 308 308 309 310 309 308 307 306 305 303 304 306 306 307 307 307 309 309 307 302 300 299 299 300 301 302 303 303 303 302 302 301
305 305 305 305 304 304 304 304 304 305 305 305 306 305 305 305 304 304 304 305 304 304 304 304 304 305 305 307 310 312 310 307 304 304 304 304 304 304 304 305 304 305 306 308 307 308 308 307 308 308 309 310 310 310 310 308 308 309 309 310 307 306 307 305 303 303 303 304 304 305 305 306 306 306 304 300 299 299 299 300 301 302 302 301 301 300 301 300
305 304 305 304 304 304 304 304 305 305 305 305 306 305 305 305 305 305 304 304 304 304 304 304 305 305 306 308 311 311 308 304 303 304 304 304 304 304 305 305 305 305 306 307 307 307 307 307 308 308 308 309 309 310 311 308 309 310 310 310 307 307 306 304 304 303 303 303 303 304 305 304 302 303 302 299 298 299 299 299 299 299 299 299 299 299 299 299
305 304 304 304 304 304 304 304 305 305 305 306 306 306 306 305 305 305 305 304 305 304 304 305 305 306 308 309 311 311 305 303 303 304 304 304 304 304 305 305 305 305 307 307 307 307 307 308 308 307 308 308 308 310 311 309 310 310 309 309 308 307 306 303 304 304 303 303 303 304 305 303 301 303 302 298 298 299 298 298 298 298 297 297 297 297 298 298
305 304 304 304 304 304 304 304 305 306 306 306 307 306 305 305 305 305 305 305 304 304 304 305 306 307 309 309 310 309 304 302 304 303 304 304 304 305 305 304 304 305 307 307 307 307 307 308 307 307 309 309 309 310 310 310 309 308 307 309 308 307 306 304 304 304 303 304 303 304 304 302 302 303 301 298 298 298 298 297 297 297 296 296 296 296 296 296
304 304 304 304 304 304 304 304 305 306 306 306 306 305 305 305 305 305 305 305 305 305 305 305 306 307 309 310 308 306 303 304 304 303 304 304 304 304 304 304 304 305 306 306 307 306 306 308 307 308 309 308 310 311 310 309 308 307 307 308 309 308 307 306 305 304 304 304 303 303 304 304 304 302 299 297 298 298 298 297 296 296 295 295 294 294 294 294
305 304 304 304 304 304 304 305 306 307 306 305 305 306 307 307 307 305 306 305 304 304 304 306 307 307 311 311 306 303 304 304 304 304 304 304 305 305 304 304 304 304 305 305 306 305 305 307 307 308 309 309 311 311 309 307 307 307 308 309 309 309 309 307 305 304 303 304 302 303 307 306 303 299 298 298 298 298 297 297 296 295 295 294 293 293 292 292
305 305 304 305 304 304 305 305 306 307 306 305 305 307 308 309 309 307 307 306 305 306 307 307 307 308 312 309 304 303 304 304 305 304 304 304 305 305 305 305 304 304 304 304 305 305 305 307 307 309 309 309 310 309 307 308 307 308 310 310 309 309 309 307 305 304 304 303 302 304 308 307 301 298 298 298 298 298 297 296 296 295 294 293 293 291 291 291
305 305 304 305 305 304 305 305 307 307 305 305 305 307 309 309 308 308 308 307 308 308 307 307 307 310 313 308 304 304 304 305 306 304 304 304 304 306 306 305 305 303 303 304 305 306 306 307 307 309 309 308 309 308 309 311 309 310 311 310 310 309 310 307 304 305 305 303 303 305 308 306 301 298 298 298 298 298 297 296 296 294 293 293 292 291 290 290
305 304 305 305 305 305 305 305 307 306 305 305 305 308 309 307 307 307 307 307 308 308 307 310 309 310 312 308 305 305 305 306 306 304 304 303 304 305 305 305 305 304 304 305 305 306 306 306 308 309 309 307 309 310 310 311 310 311 310 309 310 309 310 309 305 304 305 304 304 305 308 306 300 298 298 298 299 298 297 296 295 294 293 293 292 291 290 289
305 304 305 305 305 305 305 305 306 306 306 305 305 308 308 307 307 307 307 306 307 306 307 311 310 309 310 307 305 306 306 306 305 304 305 304 304 304 305 306 306 306 305 305 305 306 306 307 307 308 308 308 309 310 310 310 310 311 311 310 309 309 310 310 308 305 304 306 306 305 306 303 299 298 298 298 299 298 297 296 295 294 293 292 292 291 290 289
305 304 305 305 305 305 305 305 306 305 305 305 306 308 308 306 307 309 309 308 307 307 309 310 310 312 311 307 305 306 306 306 304 304 305 305 304 303 305 306 306 306 306 306 306 305 306 308 308 308 309 309 309 310 310 311 312 312 312 310 310 310 309 309 310 307 305 307 307 307 306 301 299 298 297 298 298 298 297 296 295 294 293 292 291 290 289 288
305 305 304 305 305 305 305 305 306 305 305 305 305 307 309 308 309 312 312 310 311 311 311 310 309 311 310 307 306 306 306 305 303 305 306 305 304 304 305 306 306 306 307 308 307 306 308 309 309 310 311 311 311 311 311 311 311 311 311 311 310 310 309 310 310 307 307 308 307 307 305 301 299 298 297 298 298 297 297 295 295 294 293 292 291 290 289 288
305 304 304 305 305 305 305 305 305 305 305 305 306 310 311 310 312 314 311 309 309 310 310 310 307 307 307 306 306 306 305 305 304 306 306 305 305 305 306 307 307 307 309 311 310 309 309 309 311 312 312 311 310 309 310 309 309 310 311 311 311 310 310 310 309 306 306 308 307 306 303 300 299 298 297 297 297 297 296 295 295 294 292 291 290 290 289 288
305 304 304 305 304 305 305 305 305 305 305 305 308 312 311 310 311 311 310 310 308 308 309 308 306 306 305 305 305 304 305 305 306 307 305 305 306 306 307 308 308 309 311 311 311 311 310 310 312 312 309 308 308 308 308 309 310 310 310 310 310 310 310 309 308 306 305 306 307 304 302 300 297 297 296 296 296 296 296 295 294 293 292 291 290 289 288 288
305 305 304 304 305 305 304 305 305 304 305 306 309 312 311 309 308 305 308 313 310 308 309 307 306 306 305 304 304 303 304 305 306 307 304 305 307 308 309 310 309 310 311 311 311 311 311 311 310 307 306 306 307 307 307 309 310 309 309 309 308 309 309 308 307 306 305 306 306 304 301 299 296 295 295 295 296 295 295 294 293 292 291 291 290 289 289 288
305 304 304 305 304 304 304 305 305 304 305 307 311 313 310 307 306 303 308 313 311 309 310 308 307 306 305 305 304 304 305 305 306 306 304 304 306 307 309 310 308 310 311 311 310 310 312 310 306 305 305 307 308 308 308 309 309 309 309 308 308 308 307 307 307 306 305 305 305 305 302 298 296 295 295 295 295 295 294 294 293 293 292 291 290 290 290 289
305 304 305 304 304 305 305 304 305 304 304 306 308 308 306 306 305 305 310 313 312 311 309 307 306 305 305 304 304 305 306 305 304 305 303 303 305 307 308 308 309 312 312 311 310 310 312 307 303 305 306 306 308 308 308 307 308 309 308 307 307 307 306 306 306 306 306 306 305 305 304 300 298 297 295 295 295 294 294 294 293 293 292 291 291 290 290 290
304 304 304 304 304 304 304 306 306 304 306 308 307 306 305 306 305 306 311 313 312 312 310 308 307 304 303 304 304 305 306 305 304 304 303 302 303 306 308 307 308 311 311 311 310 311 310 305 303 307 307 306 307 308 307 305 307 308 307 305 305 305 305 305 305 306 306 306 305 305 305 303 300 298 296 295 295 295 294 294 293 292 292 291 291 291 290 290
304 304 303 303 304 304 306 310 307 304 309 311 306 305 305 306 305 306 312 313 311 311 311 310 308 305 305 305 305 305 307 307 304 304 304 302 303 305 307 308 308 309 309 309 309 309 308 305 304 306 307 307 308 307 305 304 305 307 305 303 303 303 304 305 305 305 305 305 306 305 304 303 301 298 297 296 296 295 294 294 293 292 292 292 291 291 290 290
303 303 303 303 303 305 308 309 306 307 313 310 304 304 305 305 305 307 312 313 311 311 310 309 308 306 306 306 305 306 307 306 305 305 304 302 303 305 307 308 309 309 308 308 309 307 307 306 306 306 307 309 308 305 304 303 304 306 304 302 303 303 304 305 305 304 304 305 305 304 304 304 303 299 297 297 296 296 295 295 294 293 292 292 292 291 291 290
303 302 303 304 303 304 306 306 308 310 309 305 303 304 305 305 305 309 313 312 311 310 308 308 307 305 306 307 306 306 306 305 306 306 304 303 303 306 308 307 308 307 307 309 309 307 306 307 306 306 308 307 305 303 302 302 304 306 303 302 303 303 304 304 304 304 304 304 304 305 304 305 304 299 296 297 297 297 296 295 294 293 292 292 292 291 291 290
302 303 303 304 303 304 304 304 308 309 305 303 304 304 304 305 307 313 313 310 310 309 307 308 307 305 307 309 307 306 306 305 305 306 306 304 303 306 307 306 307 307 307 309 307 305 305 305 304 306 306 304 303 302 301 301 305 305 302 302 302 302 303 303 303 304 304 304 304 305 304 304 304 299 297 298 298 298 297 296 295 294 293 292 292 291 291 290
302 303 303 304 305 305 305 306 305 304 304 305 304 303 305 307 311 312 308 307 309 309 308 308 307 306 307 309 308 307 307 306 305 306 307 307 305 306 305 304 306 307 308 308 306 305 304 304 304 304 303 302 301 302 301 301 303 303 302 304 304 303 303 303 303 303 305 306 304 303 303 303 303 301 299 299 297 298 297 296 295 294 293 292 292 291 291 290
302 304 303 304 304 303 307 310 305 303 305 305 304 305 308 311 312 308 305 307 309 309 309 307 307 307 306 307 307 306 307 307 306 306 307 306 305 305 305 304 305 307 307 307 306 307 306 305 305 303 301 301 301 302 303 301 301 302 304 304 305 304 303 303 304 304 306 307 303 302 302 302 303 302 299 298 296 296 296 296 295 294 293 293 292 292 291 290
303 304 303 303 303 302 306 308 305 304 306 306 307 310 312 311 308 306 305 307 309 307 306 306 307 307 306 306 306 305 305 306 306 306 306 306 305 303 304 303 304 305 305 304 305 307 307 305 304 303 301 301 302 304 305 303 303 303 304 304 305 306 305 305 305 305 306 305 302 301 302 302 302 299 297 296 295 294 295 296 296 295 293 293 292 292 291 290
303 304 304 303 303 302 303 304 304 306 307 307 308 312 312 308 306 305 305 306 307 305 305 305 306 306 305 306 305 304 305 305 305 306 306 307 306 304 304 303 303 304 303 304 304 304 305 304 303 304 303 301 302 302 303 303 303 303 302 303 304 305 306 306 306 306 306 304 301 300 300 301 301 298 295 294 293 293 294 295 295 295 294 293 292 291 291 290
303 304 304 303 303 303 303 304 304 307 308 309 310 311 310 307 305 305 305 304 306 305 306 305 304 305 306 305 304 303 305 305 305 305 306 307 305 304 304 302 302 303 303 304 303 302 304 305 303 302 301 301 301 300 300 301 302 302 302 302 303 304 305 305 305 306 306 304 302 300 301 303 302 297 294 292 292 292 293 294 294 294 293 292 291 291 290 290
303 304 304 303 302 303 303 304 305 307 309 311 312 311 309 305 304 304 305 305 305 305 306 305 304 307 307 305 305 303 303 305 305 305 305 305 304 303 303 302 301 301 302 304 303 302 304 305 302 301 300 300 300 300 300 301 302 302 301 302 303 302 302 303 304 304 303 303 302 302 302 301 298 295 292 292 292 291 292 292 292 292 292 291 290 290 290 290
304 304 305 303 302 302 302 304 305 306 309 312 311 309 305 304 303 303 304 305 305 304 305 306 306 306 306 305 305 304 303 303 304 305 304 304 303 303 302 301 300 300 300 302 303 302 303 304 302 301 300 298 298 299 300 300 301 302 302 302 302 300 300 302 303 302 302 303 303 302 301 298 296 295 293 292 292 291 291 292 291 291 291 290 290 290 290 289
305 306 307 304 302 302 302 303 304 306 311 313 310 306 303 302 303 303 304 304 304 302 304 306 306 304 305 305 305 304 304 303 304 305 304 303 303 302 302 301 299 299 299 299 301 301 301 303 303 301 301 299 297 298 299 299 300 301 301 301 300 300 300 301 302 302 302 303 303 302 301 300 300 298 294 293 293 291 291 291 291 290 290 290 290 290 289 289
306 307 309 304 301 302 302 302 303 307 312 310 307 304 303 303 302 303 304 304 304 303 304 305 305 304 304 304 304 303 303 304 304 304 304 303 303 302 301 301 299 299 298 298 300 300 300 302 302 300 301 300 297 298 301 300 300 301 300 300 300 300 300 301 302 302 302 302 302 302 301 300 301 299 296 295 294 293 291 291 290 290 290 290 290 290 289 289
307 309 310 305 302 303 304 304 307 311 312 309 307 305 304 304 304 302 302 302 304 304 304 304 304 304 304 303 304 303 302 303 303 304 304 303 303 302 300 300 299 299 299 298 299 300 300 302 302 300 300 300 299 300 301 301 300 300 300 300 300 300 300 301 301 301 301 301 301 301 301 300 299 296 295 294 293 293 293 291 291 291 290 290 290 289 289 289
308 312 310 304 302 304 305 307 310 311 309 307 307 305 304 305 305 302 300 302 303 303 303 304 303 304 304 303 303 302 302 303 303 304 304 302 303 302 299 298 299 299 299 298 298 299 300 301 302 302 302 301 301 300 300 299 300 300 301 301 300 300 300 300 300 300 300 300 300 300 300 300 296 294 294 293 292 293 293 292 291 291 290 289 289 289 289 288
309 311 310 304 303 304 307 309 308 306 306 306 306 305 306 307 305 303 301 301 303 303 302 303 304 304 304 303 303 302 302 303 303 303 303 302 302 301 298 296 297 298 299 299 298 299 300 301 301 302 302 302 300 297 296 297 298 299 299 299 299 299 299 299 300 300 299 299 300 299 300 298 294 293 293 292 292 292 292 292 291 290 289 289 289 289 288 287
309 309 308 304 303 306 310 309 305 305 306 305 305 306 306 306 304 303 303 301 303 303 302 303 303 303 303 303 303 303 302 303 303 303 303 301 301 301 298 294 295 295 297 299 298 297 298 299 300 302 302 300 298 295 295 296 297 298 298 298 298 299 299 299 300 300 299 299 299 298 299 297 293 292 292 291 291 291 290 290 290 290 289 289 288 288 287 287
309 307 307 304 302 306 310 309 306 306 304 303 303 304 304 304 304 303 303 302 303 303 303 303 303 303 303 302 302 303 302 303 303 302 302 302 300 299 297 295 295 295 297 299 298 297 297 299 300 302 301 299 296 295 296 295 297 299 298 297 297 297 297 297 298 298 298 299 299 298 298 296 293 291 291 291 290 290 290 289 289 289 289 288 288 287 286 286
307 307 308 305 303 307 311 309 307 305 303 303 304 303 303 304 304 304 304 303 302 302 302 303 302 302 303 302 301 302 303 302 302 301 301 301 300 297 296 295 295 296 297 298 298 297 299 301 300 301 301 300 298 298 298 297 297 299 298 296 295 296 296 296 296 297 297 298 297 296 296 296 293 291 291 290 290 290 289 289 289 288 288 287 287 286 286 285
308 308 308 306 305 307 308 307 307 305 303 304 304 302 303 304 303 303 303 302 301 301 302 302 301 301 302 302 302 302 302 301 301 300 300 300 300 297 296 295 295 296 296 296 296 296 298 300 299 300 301 300 300 300 300 298 298 298 298 296 295 295 295 296 297 297 298 297 296 295 296 296 294 292 291 290 290 289 289 289 288 288 288 287 286 286 285 285
309 308 307 307 306 306 305 304 306 305 303 304 304 302 304 304 303 302 303 303 301 300 301 302 301 301 302 302 303 303 302 301 301 300 299 300 299 298 297 296 297 296 296 295 295 294 297 299 299 299 299 299 299 299 298 298 297 297 298 298 296 295 294 295 297 298 297 296 295 295 295 295 294 293 292 290 290 289 289 288 288 288 287 287 286 285 285 284
309 306 305 307 307 307 306 305 306 305 304 304 303 302 304 304 303 303 303 303 301 300 301 302 302 302 301 302 302 302 302 302 301 299 298 298 298 298 297 297 298 297 296 296 295 294 297 300 298 298 298 298 298 298 297 297 296 296 297 297 296 295 294 294 297 297 296 295 294 294 294 294 293 293 292 291 290 289 288 288 288 287 287 286 285 285 284 284
307 305 303 304 306 306 306 305 305 306 306 304 303 302 304 304 304 304 303 302 301 301 302 302 302 302 301 301 302 301 302 302 301 300 299 297 298 298 298 297 297 297 297 296 294 293 297 299 298 297 298 297 297 297 296 296 296 295 295 295 296 296 295 296 296 295 295 294 294 293 293 292 292 292 291 290 289 288 288 287 287 287 286 285 285 284 284 283
305 304 302 303 304 303 301 302 305 307 306 304 303 303 304 304 304 303 302 303 303 302 301 303 303 302 301 301 301 301 301 301 301 301 300 298 298 298 299 298 297 297 297 296 294 293 295 299 298 296 297 298 297 296 296 295 295 294 295 295 295 295 295 295 295 294 294 293 293 293 292 292 291 291 290 289 288 288 287 287 287 286 285 285 284 283 283 282
307 306 303 304 303 301 299 300 304 307 305 303 304 304 303 304 304 303 302 303 304 303 302 303 302 302 301 301 301 301 300 300 300 300 298 298 298 298 298 297 297 297 298 296 295 294 296 299 298 296 298 299 296 295 295 294 294 294 294 294 294 294 294 294 294 294 293 293 293 292 292 291 291 290 289 288 288 288 288 287 286 286 285 284 283 283 282 281
304 303 304 306 303 300 300 301 304 306 305 303 304 304 304 304 303 303 303 302 302 302 303 302 302 302 301 300 300 300 299 298 299 299 298 298 298 297 297 296 296 297 298 297 295 296 296 297 297 297 298 298 296 295 295 294 294 294 295 294 293 293 294 294 294 293 293 293 292 292 292 291 290 289 289 288 288 288 287 286 285 285 284 284 283 282 281 280
302 302 305 308 304 300 301 303 304 306 303 302 304 304 304 304 302 302 303 302 301 301 301 301 301 301 301 301 300 298 297 296 296 296 295 295 296 295 296 296 295 296 297 296 295 295 295 296 297 296 297 297 296 295 294 293 295 296 295 293 293 292 293 293 293 293 292 292 292 291 291 290 290 289 288 288 288 287 286 285 285 284 283 283 282 281 280 279
Wind_Speed
3 2 2 2 2 2 3 4 4 4 4 4 5 5 5 4 4 4 4 4 4 4 6 7 9 9 10 10 10 7 3 1 2 3 2 2 4 6 7 8 9 7 6 7 6 7 7 8 8 6 7 6 5 3 4 4 4 4 5 7 7 8 7 4 4 3 5 6 3 5 3 5 2 5 3 2 5 3 6 6 4 6 9 10 10 11 15 17
2 2 1 1 2 3 3 4 4 4 4 5 5 5 5 5 4 4 4 4 4 5 6 7 9 9 10 10 10 6 1 3 4 5 4 3 5 7 8 8 7 6 6 7 6 7 7 7 7 6 7 5 4 4 4 4 5 6 6 7 8 8 4 3 4 5 5 6 3 3 3 4 1 4 4 4 6 6 6 6 7 6 8 10 10 12 14 15
2 1 1 2 2 3 3 3 4 4 5 5 5 6 6 6 5 4 4 4 5 5 6 8 9 10 9 10 9 5 2 6 5 4 4 5 7 8 9 7 6 6 5 6 6 6 7 7 5 6 7 5 4 5 5 4 5 7 6 7 7 6 5 2 3 4 3 5 5 0 2 3 1 3 4 3 4 7 3 3 5 4 7 10 10 11 13 13
1 1 1 2 2 3 4 4 5 5 6 7 7 7 7 6 5 5 5 5 6 6 7 9 10 11 10 10 9 5 2 6 3 3 3 6 7 7 8 7 7 6 4 4 6 5 6 7 6 8 7 6 5 5 6 5 4 5 5 9 7 3 5 1 3 2 2 3 5 1 2 3 3 2 3 3 5 6 5 9 5 6 5 8 11 11 12 12
2 2 2 2 2 3 4 5 6 7 8 8 8 8 7 7 6 5 5 6 7 7 8 9 10 11 10 10 10 4 2 4 2 3 4 7 7 8 8 7 7 6 3 4 5 5 6 7 7 7 6 7 6 5 8 7 4 5 7 12 9 4 6 2 5 2 2 1 4 3 3 1 3 3 2 2 2 1 6 9 7 7 7 4 9 11 11 12
3 2 1 2 2 3 5 6 7 8 9 9 10 9 9 8 7 7 6 7 7 8 8 9 9 10 9 10 8 2 4 1 3 2 6 8 9 9 8 7 7 6 4 5 6 5 6 7 7 7 6 7 8 7 6 5 4 6 8 10 7 5 6 2 4 2 0 3 4 3 1 1 3 3 3 6 6 7 7 7 6 4 5 5 9 11 11 12
2 2 2 2 3 4 6 8 9 10 10 10 10 10 9 9 9 8 7 7 7 8 8 8 8 7 9 9 6 5 4 2 4 5 8 9 11 10 8 7 7 7 5 7 7 6 6 7 8 6 7 7 8 8 3 4 5 7 9 7 2 2 4 1 3 2 1 3 2 1 1 2 4 3 6 9 9 8 8 7 6 6 8 9 11 11 12 13
4 4 3 3 4 6 8 9 10 10 10 10 10 9 9 9 9 9 8 8 7 7 7 7 7 6 9 8 5 6 2 5 5 7 10 11 11 10 9 6 6 7 6 8 7 7 6 8 9 6 7 7 5 5 2 3 8 9 10 7 2 2 2 1 2 2 2 2 1 1 3 1 2 3 7 9 9 8 8 8 9 10 12 13 12 13 13 14
5 5 4 4 6 8 9 10 10 10 10 10 10 10 10 10 9 9 8 8 7 6 6 6 6 6 8 6 6 4 2 4 5 8 12 14 12 10 8 5 6 7 7 6 6 8 5 6 7 5 7 6 4 4 3 5 6 6 8 5 3 4 2 3 3 4 4 2 2 4 5 4 4 2 7 9 8 7 8 10 11 12 13 13 12 13 13 14
6 5 5 6 8 9 10 10 10 10 10 10 10 10 11 11 10 9 8 8 7 6 5 5 5 6 7 6 7 3 4 3 4 10 16 16 12 8 5 5 6 7 7 6 5 7 6 6 5 4 6 5 5 3 4 5 2 1 4 4 6 5 3 4 4 5 4 3 4 6 4 5 3 2 3 8 7 7 9 12 12 13 14 14 13 13 15 16
5 4 5 7 9 10 11 11 10 10 11 11 11 12 12 12 11 10 7 7 6 5 5 5 6 6 7 7 5 2 4 3 5 12 16 14 11 7 4 4 5 6 8 7 5 5 7 8 6 3 3 2 3 4 4 3 2 2 3 5 7 6 5 6 6 5 5 4 5 5 2 4 4 1 4 7 6 7 11 13 13 14 14 14 14 13 14 17
5 4 6 8 10 12 12 12 10 11 13 13 13 13 11 9 9 8 6 6 5 6 5 5 6 5 7 6 2 3 3 4 7 12 13 11 12 10 6 6 5 8 8 8 6 4 6 7 6 6 2 3 2 3 3 1 2 3 4 7 8 8 8 8 6 5 5 3 6 5 3 4 4 5 6 6 6 8 12 12 13 13 12 13 13 12 13 16
5 5 8 10 12 13 12 12 10 12 15 15 14 11 8 7 6 4 4 4 4 5 5 6 5 3 6 2 4 1 2 7 9 11 12 12 12 10 5 6 8 10 7 7 7 6 6 6 6 7 3 4 4 1 0 2 3 4 5 6 6 7 7 6 4 4 5 3 6 5 4 4 6 8 7 6 6 9 11 11 12 11 11 12 12 12 13 17
5 7 10 12 13 13 13 12 11 13 16 17 14 9 8 7 5 2 1 3 4 4 4 4 2 3 4 2 3 1 2 7 8 10 14 16 13 6 3 4 7 7 4 3 4 5 5 3 6 4 1 3 2 2 3 4 4 4 4 4 5 7 3 6 4 5 6 3 6 6 4 3 7 8 6 5 5 8 11 11 11 10 11 11 12 13 13 16
5 8 11 12 13 13 13 12 11 13 16 17 12 8 8 8 8 5 2 2 3 2 2 2 2 4 2 4 1 2 1 7 8 10 15 17 13 5 3 5 4 3 1 0 2 2 2 2 5 3 1 1 1 3 6 5 5 5 4 5 6 5 2 7 3 4 3 3 8 7 2 4 7 8 6 4 5 9 11 11 11 12 12 11 11 12 12 15
6 9 11 12 13 13 14 12 11 13 15 16 11 6 7 8 10 10 5 1 1 3 3 1 3 5 2 3 0 1 3 8 9 9 12 14 12 6 7 6 2 0 1 2 1 1 1 3 3 2 1 2 4 5 5 5 6 6 6 7 5 5 3 4 3 1 1 3 8 8 3 4 7 7 6 5 7 10 11 12 12 12 12 12 11 11 11 13
7 10 12 12 13 13 14 12 11 13 14 15 10 4 5 7 13 15 7 3 4 6 3 3 1 5 1 3 1 3 8 11 9 10 10 12 12 7 7 4 2 1 3 4 3 3 3 3 1 1 4 4 4 4 5 6 5 4 4 5 6 5 4 2 2 3 2 2 5 8 3 6 7 7 7 6 7 10 11 11 12 11 11 11 11 11 11 12
8 11 12 12 13 13 14 12 11 14 14 13 9 2 2 3 10 16 11 3 3 5 3 4 3 3 2 4 3 8 14 12 8 10 12 12 11 6 5 3 2 3 4 5 4 5 4 3 2 3 4 5 4 4 6 5 5 4 4 5 6 4 6 6 1 3 3 3 4 7 4 8 9 8 7 6 7 10 11 11 10 11 11 11 11 11 11 12
9 11 11 12 13 13 14 12 11 14 13 12 8 2 2 2 2 9 14 10 1 1 0 4 5 1 2 5 7 12 15 10 6 7 13 14 9 6 5 4 3 4 5 3 4 4 2 2 4 5 4 2 2 3 6 7 8 9 8 7 7 6 7 2 4 3 1 3 4 3 5 9 9 8 8 7 8 9 11 10 9 10 10 10 10 10 11 11
9 11 11 12 13 13 15 12 10 13 13 11 7 3 3 2 2 2 11 12 5 3 2 3 5 3 4 5 9 16 13 5 2 8 17 17 9 6 5 5 4 5 4 2 0 1 1 4 4 2 4 5 6 6 7 8 7 8 8 7 7 8 7 2 7 3 1 2 2 5 9 9 8 8 8 7 8 9 9 10 9 9 9 9 10 11 11 11
10 11 11 12 13 14 15 11 10 12 11 11 7 1 1 3 3 1 4 5 4 3 2 2 3 3 4 5 8 14 7 3 2 8 21 19 8 4 2 2 4 3 1 2 2 0 2 5 2 6 7 6 6 6 5 6 6 6 7 7 7 7 4 4 5 3 1 2 3 9 9 8 8 7 7 6 7 7 7 9 9 10 10 9 11 12 11 10
10 11 11 13 13 14 14 10 9 11 10 12 10 4 3 2 1 0 1 2 4 2 1 1 2 2 2 2 5 10 5 1 1 9 23 21 7 4 5 4 4 3 2 2 3 3 4 1 6 7 6 5 4 4 5 6 6 7 5 6 6 4 2 4 5 3 1 1 3 9 7 7 8 7 7 6 7 7 7 8 9 10 10 10 10 11 10 10
10 12 12 13 13 14 13 7 8 11 11 12 9 5 3 2 2 2 2 0 4 0 1 2 2 7 6 1 6 10 4 5 5 10 21 19 9 6 7 6 5 4 3 3 4 5 3 3 8 7 5 5 5 3 5 7 6 6 4 6 5 4 4 0 3 1 2 2 2 7 6 6 7 7 7 6 7 8 8 9 9 9 9 10 10 9 10 10
11 12 12 13 13 14 11 5 8 10 11 11 8 5 3 3 2 1 2 1 2 2 1 2 1 7 8 2 7 10 3 5 6 9 16 14 9 6 4 6 5 3 3 6 6 4 3 4 5 5 3 4 6 4 4 6 5 2 1 4 5 5 5 3 3 3 4 2 4 7 5 4 6 6 6 6 7 8 8 9 9 8 9 10 10 9 9 9
12 12 12 13 13 14 9 3 7 8 7 7 6 3 3 3 2 1 2 2 1 2 2 1 1 4 7 4 6 7 1 3 6 8 11 11 9 5 2 2 3 4 5 6 6 2 4 3 3 5 3 4 6 3 5 6 6 1 3 4 4 5 5 5 6 6 5 3 6 7 4 2 6 6 6 6 6 7 7 8 8 8 8 9 8 8 8 7
12 12 13 13 12 13 6 0 6 6 3 4 3 1 2 2 2 2 2 3 2 2 1 1 0 5 8 6 8 5 2 2 4 5 7 6 5 3 2 2 0 4 5 4 3 0 3 2 2 5 5 5 3 1 6 6 7 3 1 3 4 4 6 7 6 5 6 3 5 7 5 1 5 6 7 7 7 8 8 8 8 8 8 8 7 7 7 7
11 11 12 12 11 11 4 0 5 5 1 2 2 1 2 2 2 1 2 3 2 2 4 4 3 6 9 8 11 4 1 6 4 3 7 6 4 2 2 5 1 2 3 2 1 1 3 4 3 5 6 4 2 1 5 5 5 3 0 2 5 5 7 7 6 6 6 4 4 7 6 5 3 5 7 8 8 8 8 8 8 8 8 8 7 7 7 7
10 10 10 11 10 9 5 2 4 3 1 2 2 1 2 3 2 1 3 1 2 2 2 4 2 5 8 7 9 5 1 8 5 5 9 6 4 3 1 6 4 3 3 3 3 3 2 4 5 6 5 2 3 4 5 4 5 2 1 4 6 6 8 6 6 6 4 4 3 5 4 5 1 5 6 7 6 7 8 8 9 9 8 8 8 7 7 6
8 8 10 10 9 9 5 3 3 1 1 2 2 1 2 3 2 3 3 0 2 2 0 3 2 5 10 6 5 7 3 5 4 6 9 3 2 1 1 4 4 4 3 3 4 4 2 3 4 6 3 3 5 5 3 4 5 2 2 6 6 6 7 6 6 5 3 4 2 4 2 4 1 5 5 5 3 4 7 8 7 9 9 8 8 7 6 5
7 7 10 10 8 8 5 2 4 2 2 2 2 1 3 2 2 3 1 1 2 2 0 3 3 6 11 6 5 9 6 5 5 6 5 2 3 3 2 0 3 4 3 2 3 2 1 1 1 2 3 3 7 5 2 5 5 3 5 7 6 7 6 5 5 3 4 4 2 5 2 3 1 4 4 3 2 3 5 7 7 8 9 8 7 7 6 5
5 6 10 12 11 10 4 1 5 4 3 2 3 2 3 2 2 1 2 1 2 4 2 3 5 6 9 6 4 9 6 4 7 7 5 4 6 9 6 1 3 3 3 1 2 4 5 3 1 1 1 3 6 5 4 5 5 4 5 6 6 5 4 4 4 4 5 2 4 4 2 3 3 3 6 5 4 5 3 4 7 9 9 8 7 6 6 4
3 4 10 15 15 14 6 3 6 5 2 2 4 2 3 2 2 2 2 1 2 4 3 2 5 8 7 4 4 9 5 3 7 6 5 5 5 9 9 6 6 4 2 5 4 1 3 3 2 2 2 3 6 5 2 5 4 4 5 5 6 4 2 3 3 3 4 2 5 3 3 4 0 5 6 5 6 5 3 0 5 9 9 8 7 6 5 3
2 2 9 17 19 17 10 4 4 3 1 3 4 3 3 0 4 2 3 4 2 3 2 2 6 8 8 5 6 7 2 1 7 4 2 4 3 6 9 10 10 6 5 7 8 6 1 4 3 1 2 2 6 6 3 1 4 5 5 5 6 5 5 5 4 5 4 2 5 4 3 2 4 6 5 6 6 4 3 2 4 7 8 7 7 5 4 3
1 1 7 16 20 17 11 5 2 1 2 3 4 2 1 3 3 1 2 4 3 3 3 3 6 7 4 1 4 6 2 1 6 6 4 4 3 4 6 10 12 8 6 7 4 5 4 1 4 4 2 5 6 5 4 6 7 4 3 5 5 4 4 5 5 5 5 5 1 3 0 1 3 4 4 5 5 5 5 5 6 7 7 6 6 5 3 2
1 0 6 16 21 17 12 8 3 2 3 3 2 2 4 4 2 1 2 3 3 5 4 2 5 6 1 2 2 2 2 1 4 5 4 4 4 4 4 7 11 9 7 6 3 3 7 3 3 3 2 4 5 2 3 6 5 2 3 4 3 4 4 5 6 5 5 7 4 3 2 4 4 4 4 5 5 6 6 6 7 6 7 6 4 4 2 1
1 2 4 16 22 17 13 9 3 2 3 3 2 6 4 3 2 3 3 3 3 6 8 4 3 5 4 2 1 4 2 1 4 4 2 4 4 5 4 4 7 8 7 6 4 3 6 4 3 3 1 3 3 2 2 4 3 2 3 2 3 3 4 5 5 3 4 6 3 2 3 4 5 4 5 5 5 6 5 5 6 6 6 5 4 3 1 1
2 2 2 15 23 17 12 8 3 2 2 1 5 5 2 2 2 3 3 3 3 3 7 4 2 4 5 3 3 7 5 2 4 5 1 2 2 4 5 3 3 6 6 4 4 2 4 7 1 2 1 2 1 2 1 1 4 4 3 4 4 3 3 3 4 3 4 6 4 2 2 1 3 2 4 6 5 5 5 5 5 6 5 4 3 2 1 1
2 3 1 15 23 15 10 6 3 2 1 5 7 4 2 2 1 2 3 4 3 3 4 4 3 2 4 5 4 7 7 5 6 6 3 2 2 3 4 3 3 4 4 3 3 2 3 6 1 2 1 2 3 3 2 2 1 2 2 3 3 2 3 3 4 5 5 7 6 1 2 1 1 3 4 4 3 4 7 6 5 5 5 3 2 1 1 2
2 3 1 15 20 12 11 7 1 3 3 6 5 3 2 2 2 2 3 3 3 3 2 3 2 1 2 5 5 5 5 5 6 5 3 4 3 4 4 3 2 5 5 3 3 3 3 4 1 1 1 2 3 2 2 1 1 1 1 1 2 2 4 4 4 4 5 6 7 3 1 1 3 5 5 5 5 3 4 5 5 5 3 1 0 2 3 4
1 3 2 18 17 7 12 10 3 4 6 5 4 3 2 2 3 2 1 2 2 2 3 3 2 2 3 4 4 3 3 4 5 4 3 4 3 4 5 4 5 7 7 3 3 4 3 4 4 3 2 1 0 2 5 4 4 3 3 4 5 3 2 3 3 1 3 6 6 6 5 1 5 4 5 6 6 5 2 2 2 2 2 0 2 3 5 6
2 2 3 18 13 2 6 8 6 6 4 4 4 4 1 1 1 2 1 1 2 0 2 3 2 3 3 4 3 3 4 5 4 3 3 4 4 3 4 4 5 7 6 3 2 3 3 4 6 7 6 3 3 4 4 4 5 5 5 5 5 5 3 4 4 2 1 4 3 6 7 1 4 2 4 5 4 4 4 1 1 2 0 2 4 6 8 8
2 2 5 16 11 3 4 5 5 4 3 4 3 3 2 1 0 1 2 2 2 0 0 1 2 2 2 4 4 4 5 4 3 3 3 3 4 4 3 3 4 4 4 2 0 2 3 3 5 7 6 3 6 5 3 2 2 2 4 4 4 5 4 5 5 3 2 3 0 4 6 1 4 3 4 4 3 4 3 2 1 1 2 5 7 9 9 9
3 3 6 15 9 2 3 6 4 4 5 3 1 2 1 1 1 0 1 0 1 1 1 0 2 2 1 3 4 4 5 3 2 3 3 2 3 3 3 3 4 3 3 2 1 1 2 2 4 7 4 4 7 4 3 2 2 1 3 5 4 3 3 4 5 4 4 4 2 4 5 1 3 3 3 3 3 2 2 1 1 3 5 7 9 9 8 8
3 2 5 15 11 1 1 5 4 4 4 2 2 3 1 1 3 1 1 3 2 1 2 2 2 2 2 2 3 4 5 3 2 3 2 3 3 2 1 2 3 4 4 3 3 3 2 2 4 7 5 1 2 1 1 2 3 3 3 4 3 2 2 3 3 3 4 2 4 6 6 1 4 4 2 3 3 2 1 1 3 5 7 8 8 8 8 9
1 2 2 12 17 9 3 2 3 5 5 4 4 3 1 2 2 2 2 3 2 2 2 1 1 2 2 2 3 3 2 1 2 2 1 3 2 3 1 1 2 3 4 3 3 4 3 4 5 5 6 6 4 4 3 3 4 4 1 3 3 1 2 3 3 4 3 4 5 5 5 2 4 5 4 4 3 1 2 3 5 6 8 8 9 9 9 9
0 2 2 5 10 9 4 2 3 4 4 3 3 3 3 2 2 1 1 1 1 2 2 1 1 2 2 4 4 3 1 1 2 2 3 3 2 2 2 1 2 2 3 2 3 3 3 3 3 5 5 6 7 8 6 5 6 7 4 2 1 1 1 3 4 3 3 5 4 2 4 5 5 4 2 4 2 2 3 6 7 8 9 10 10 9 9 10
1 2 2 1 2 4 4 4 4 3 1 1 1 3 4 3 2 1 1 0 1 1 2 0 2 2 4 7 5 3 4 4 2 0 2 2 3 2 2 2 2 0 1 2 2 2 4 2 2 4 5 8 9 10 7 5 7 8 8 6 3 1 0 2 4 4 4 5 4 4 7 9 11 10 3 2 2 4 6 8 8 9 10 10 10 10 11 12
2 2 1 2 1 2 3 4 4 4 4 3 1 2 3 4 3 2 1 1 1 1 1 1 3 5 5 5 5 4 8 7 1 1 1 2 4 4 1 3 1 0 1 1 1 1 4 2 2 1 7 10 8 6 5 5 7 7 7 7 4 1 1 3 4 4 3 4 7 9 12 13 13 10 3 1 4 6 7 9 9 11 11 11 12 12 12 12
2 4 1 2 1 3 3 2 2 3 5 4 2 2 4 5 5 3 1 1 1 1 2 3 5 7 5 3 4 4 6 6 2 1 1 1 3 5 2 1 1 1 3 3 2 1 2 1 1 1 8 9 4 3 3 5 7 7 5 4 2 2 3 3 4 4 3 6 9 11 14 15 11 5 2 2 5 6 8 11 12 13 13 12 12 13 12 11
1 3 2 2 4 4 2 1 2 1 4 3 2 3 3 4 5 3 0 2 2 2 3 5 7 7 3 2 4 3 4 5 6 4 2 2 3 2 2 2 1 4 6 4 2 1 1 1 2 1 7 4 3 3 5 5 6 5 3 3 2 3 4 3 4 4 5 7 9 11 14 12 4 3 2 4 6 7 11 15 15 13 12 12 13 12 11 10
4 3 2 3 4 2 2 0 1 1 3 3 3 2 2 4 5 3 1 1 3 3 4 5 7 5 1 1 2 4 5 5 7 7 5 4 3 2 1 3 4 5 5 3 2 2 3 2 0 2 6 3 2 5 10 6 3 3 4 4 3 4 4 3 3 4 5 8 10 10 10 6 3 3 5 7 8 12 16 16 14 12 12 13 13 11 10 9
5 3 0 2 3 2 2 1 1 1 3 3 3 2 2 3 2 3 1 1 0 2 3 4 6 5 2 1 3 4 5 6 6 5 4 4 4 3 2 3 3 4 4 3 1 1 2 4 3 3 6 5 5 10 11 4 1 1 2 2 2 3 5 6 6 6 6 8 9 8 7 7 6 6 8 10 13 16 17 15 13 13 13 13 12 10 9 8
Wind_Direction
106 98 81 51 23 10 356 350 350 351 347 347 347 345 339 327 310 290 281 281 281 305 322 335 338 340 339 338 338 332 332 267 165 138 116 36 351 341 342 337 334 332 326 320 303 268 246 228 224 215 231 220 216 225 176 205 219 219 232 238 247 248 256 276 264 297 329 324 64 128 176 250 214 147 154 159 208 179 150 166 116 99 74 73 97 112 122 129
102 91 56 4 350 342 336 344 348 350 345 346 346 345 343 329 313 290 275 274 276 297 313 326 331 332 334 336 342 339 292 207 178 105 62 360 344 346 342 339 334 330 322 309 293 268 253 241 221 212 237 222 192 189 178 193 201 221 238 239 245 255 276 13 331 331 329 315 360 109 173 250 292 127 163 205 187 169 185 176 160 147 114 100 104 122 130 133
102 88 17 340 335 339 343 350 344 347 343 341 341 336 337 330 320 296 279 277 279 292 307 319 327 329 328 333 342 342 271 226 205 98 31 337 345 342 337 340 338 330 314 292 292 283 279 283 251 233 243 235 206 191 202 186 192 229 239 246 251 273 294 12 350 333 355 317 299 183 140 221 231 111 175 230 205 178 167 100 150 156 129 127 116 128 137 138
83 49 19 355 353 356 351 350 345 345 340 336 335 330 329 326 320 303 286 279 282 294 306 318 327 329 328 332 341 347 259 228 199 75 356 327 336 335 336 335 337 335 311 277 278 271 274 278 252 245 247 247 225 205 225 189 183 230 221 250 268 334 301 352 50 4 31 312 291 245 164 216 162 142 203 243 243 189 77 41 36 28 61 124 126 131 138 139
71 49 35 21 8 1 352 351 347 342 337 333 330 326 322 317 316 309 294 285 288 296 306 317 325 328 329 329 336 348 233 236 103 58 319 324 331 330 329 327 335 334 313 265 262 254 250 248 239 243 244 250 233 216 235 202 191 251 234 252 271 310 291 14 66 44 40 274 262 234 222 202 130 157 222 293 301 59 38 14 9 19 24 82 125 130 133 132
73 58 35 19 359 356 356 351 347 341 336 332 328 325 319 313 310 306 302 293 290 295 303 311 320 326 327 326 329 292 246 295 77 348 324 330 327 326 320 319 327 326 302 262 259 248 244 236 229 235 235 248 240 233 238 187 187 250 249 254 266 288 285 2 62 91 37 247 236 241 273 128 182 162 85 53 40 30 19 6 9 36 40 74 118 124 123 121
49 26 7 6 1 1 358 350 346 341 336 333 329 323 318 310 304 303 305 299 292 295 299 307 316 324 323 324 317 243 240 62 61 340 336 330 326 330 321 315 318 321 290 266 264 251 250 238 235 245 244 250 250 241 220 173 204 242 261 265 259 286 281 1 64 128 207 263 273 342 317 236 224 153 88 57 46 34 29 38 50 77 88 91 103 106 105 104
15 9 7 9 11 3 357 351 347 343 340 336 328 323 317 310 302 298 298 299 297 293 296 305 311 321 323 320 291 241 207 66 35 348 346 339 333 331 328 325 319 315 282 274 284 274 267 249 246 251 248 248 254 237 184 222 226 227 253 268 239 245 252 120 109 173 196 248 315 271 243 87 58 96 84 50 40 43 44 59 71 83 90 90 92 94 95 96
10 12 14 15 11 2 358 354 350 347 341 333 325 320 315 311 303 293 287 288 291 290 291 299 303 316 315 300 270 250 105 48 358 350 348 344 339 333 335 332 317 307 281 278 285 276 268 259 255 255 266 266 255 238 185 235 237 217 248 272 254 243 192 162 194 194 196 217 190 226 215 100 76 109 78 51 42 54 64 69 75 81 82 85 88 88 90 91
9 17 20 15 7 3 360 354 352 349 341 332 323 318 313 308 301 292 280 270 274 281 280 289 299 311 304 279 266 267 75 26 335 347 342 343 343 337 334 325 321 304 288 283 274 277 280 291 300 289 286 273 245 237 190 222 280 231 256 273 260 252 179 188 214 189 192 207 197 226 213 111 110 210 67 54 52 63 76 75 76 79 78 80 81 81 82 83
9 20 17 9 3 359 355 352 353 350 347 339 327 322 314 302 292 287 278 264 262 267 273 285 293 303 291 272 280 344 57 1 327 342 339 345 349 336 296 303 344 323 302 293 280 294 303 307 312 276 283 282 226 207 199 225 322 285 265 270 248 230 209 206 207 189 189 192 189 214 198 129 140 158 38 52 64 76 83 80 79 79 79 80 77 76 75 75
6 13 6 0 357 354 353 353 351 350 351 346 337 332 325 314 298 284 277 267 256 260 268 281 290 301 278 266 3 35 44 353 335 343 345 348 344 332 293 269 321 332 311 296 301 335 324 315 289 258 285 321 260 203 211 206 265 255 246 267 251 227 225 208 192 185 195 180 159 185 208 168 135 61 55 76 90 90 87 83 82 80 80 80 77 76 73 73
4 4 360 357 355 354 356 355 350 349 351 350 347 349 359 357 331 293 275 266 250 255 261 278 285 279 273 267 68 49 44 12 351 351 354 352 339 328 317 285 302 319 304 288 315 345 325 314 285 276 318 294 274 66 237 194 225 252 234 258 270 250 226 176 153 163 183 156 144 191 237 149 93 59 72 96 102 98 91 84 84 83 81 81 78 78 75 73
4 0 359 357 357 358 359 360 356 351 351 353 356 10 23 20 20 24 298 257 243 249 251 275 259 231 267 91 92 242 37 17 5 1 354 356 345 321 338 322 309 319 304 276 309 328 318 302 278 272 14 300 302 75 231 214 212 240 239 244 252 260 217 125 134 175 175 149 164 209 255 130 81 65 86 97 106 101 93 89 88 87 84 84 83 82 80 76
4 359 359 358 360 2 4 6 1 356 354 355 3 27 36 40 46 31 349 282 253 231 204 210 181 223 238 120 129 260 354 359 3 356 348 355 349 321 333 325 312 341 349 338 326 335 340 272 265 258 100 353 254 238 246 231 218 221 244 251 231 240 161 118 133 185 172 139 177 209 245 119 80 65 87 101 114 105 97 95 91 90 90 89 88 86 85 82
3 358 360 359 2 4 6 8 6 2 358 357 5 35 48 52 44 28 22 355 227 150 146 191 203 243 282 92 56 292 354 347 348 343 343 350 344 319 317 304 244 5 151 131 117 159 238 261 273 294 280 227 225 248 262 252 233 209 228 262 260 243 212 133 121 142 163 140 178 216 263 95 86 71 84 100 113 107 101 100 96 95 95 94 94 92 90 87
1 360 0 0 3 4 4 8 10 6 2 358 360 35 61 60 45 35 39 89 113 133 147 359 271 230 54 59 339 341 345 339 340 346 344 339 338 321 308 293 212 220 161 162 184 192 217 235 220 249 237 233 249 263 262 265 259 214 215 258 270 258 260 230 130 114 185 197 191 212 221 80 88 82 81 93 109 107 103 102 100 98 97 97 97 94 92 89
2 1 360 360 2 2 3 6 10 8 6 357 350 16 65 64 53 41 37 67 141 168 179 9 357 201 91 34 349 335 335 330 326 344 348 342 337 318 306 301 244 218 191 189 194 200 217 207 212 259 241 228 239 244 253 290 327 311 304 294 287 277 267 261 185 113 179 213 219 207 160 96 94 87 81 86 99 103 101 101 101 101 101 100 98 95 93 89
1 360 359 359 359 359 0 2 7 8 7 359 348 303 241 241 106 59 41 36 49 185 140 3 360 269 326 4 353 331 325 317 306 341 354 349 335 303 282 265 249 227 234 234 178 188 232 232 236 260 265 252 285 303 292 319 331 309 307 297 292 288 275 263 101 88 200 216 228 207 123 103 94 84 85 87 93 100 102 105 105 105 104 102 100 98 96 92
357 358 357 357 357 356 357 357 3 6 8 8 352 278 248 281 238 94 44 38 46 36 23 7 8 355 337 343 346 338 326 283 288 10 0 347 322 292 265 231 236 227 238 316 189 145 310 264 256 299 346 0 357 346 318 316 313 295 289 277 274 273 274 74 99 93 17 257 200 103 97 97 88 83 87 88 97 101 104 109 108 107 106 104 104 102 99 96
353 355 354 354 354 353 352 350 359 6 12 24 24 332 328 355 327 8 44 56 68 12 12 30 347 357 359 326 337 343 332 218 220 21 6 349 313 275 296 250 259 245 87 353 297 120 253 259 330 19 10 5 346 341 322 304 294 280 276 273 273 270 276 72 81 83 83 260 142 113 102 92 88 83 84 87 95 97 105 111 110 110 109 108 109 107 105 105
348 351 351 352 350 349 346 341 355 4 16 35 49 67 61 29 345 316 285 104 85 6 312 35 302 5 23 265 334 328 310 336 309 17 5 352 350 359 341 325 307 333 23 307 267 253 235 258 34 19 1 346 317 322 308 293 282 270 266 269 276 298 348 79 85 92 124 281 155 141 120 96 99 90 87 90 90 91 101 110 113 117 117 117 117 115 116 118
345 347 348 348 345 345 341 336 356 8 29 47 58 72 87 115 138 164 258 187 95 111 315 32 356 14 15 92 359 327 323 22 341 4 1 350 4 2 332 347 340 317 339 352 328 302 281 35 24 0 346 328 304 301 299 289 269 252 262 279 292 11 360 29 91 131 198 295 199 164 139 113 116 103 94 94 97 99 100 106 112 116 120 121 122 124 126 125
344 342 343 344 342 343 337 333 2 18 48 62 72 88 130 154 132 155 256 241 103 118 92 41 29 18 8 348 341 330 6 38 351 356 358 353 354 324 328 7 331 300 17 5 323 304 30 38 359 332 314 313 302 302 326 311 280 234 36 315 313 4 347 305 334 291 224 217 194 181 172 151 145 128 111 110 116 116 112 114 113 111 114 119 123 125 126 126
339 337 341 343 344 345 335 335 13 24 56 60 66 101 157 163 174 214 257 212 115 96 143 165 176 33 4 317 339 341 323 41 23 1 356 1 349 316 355 9 310 351 18 353 311 277 62 45 339 321 300 305 299 314 22 339 303 328 62 10 343 338 323 300 310 301 266 229 182 196 241 171 144 134 125 133 135 129 131 130 124 123 126 127 129 128 125 125
335 337 342 346 351 351 336 246 18 17 63 56 36 216 189 187 210 219 279 219 147 37 6 6 254 15 9 341 344 339 220 31 34 3 354 4 350 300 335 342 246 16 358 342 333 336 29 11 298 311 298 291 273 99 43 352 308 307 36 5 340 313 298 288 295 288 285 300 170 202 270 251 148 134 133 145 142 137 144 142 136 139 142 141 139 137 137 131
338 342 345 353 1 1 350 340 8 7 43 35 350 301 201 196 186 173 260 220 124 3 338 4 339 354 8 346 336 332 225 337 332 29 12 360 351 257 316 8 15 29 12 316 318 58 347 334 328 316 287 276 262 45 23 352 306 312 72 307 297 282 275 277 282 265 276 310 186 198 255 263 186 129 137 146 143 147 155 151 149 151 150 150 146 142 143 137
346 349 355 1 6 15 28 26 7 13 4 327 308 315 199 189 163 207 259 214 49 341 321 4 342 348 350 329 352 34 43 329 330 23 3 344 343 278 312 20 338 334 9 295 328 46 355 349 354 327 297 325 2 338 343 319 283 322 68 275 278 272 269 270 270 261 270 296 235 175 208 255 188 118 150 161 155 161 165 161 160 160 157 153 148 145 142 134
358 2 8 7 8 14 25 44 36 34 349 301 253 240 181 178 198 243 258 161 20 357 282 356 345 345 337 317 26 42 27 0 7 344 335 339 29 313 2 22 324 306 314 293 3 34 28 20 349 322 329 6 339 317 314 272 267 342 307 264 255 252 254 252 254 256 246 250 242 110 149 269 88 123 161 177 172 159 159 161 160 161 160 156 152 148 142 139
12 23 17 14 17 3 346 40 38 14 332 300 229 192 185 199 245 242 312 9 358 16 336 352 347 325 339 354 43 20 10 28 6 322 331 16 24 25 72 355 289 277 244 179 67 86 109 74 275 337 7 340 311 297 254 252 270 309 282 261 248 233 224 238 244 237 243 226 116 74 52 310 3 108 95 107 82 54 120 152 156 159 162 159 158 153 150 150
23 39 24 20 22 8 343 333 357 341 325 291 187 179 212 220 279 284 51 40 322 356 348 358 357 339 353 14 20 1 0 20 1 350 7 25 19 21 30 7 310 284 230 178 97 149 163 188 181 91 359 310 295 267 211 226 251 269 273 280 281 247 209 226 211 198 246 233 85 69 40 308 285 82 63 70 65 37 61 144 157 165 167 162 159 156 155 153
27 40 23 18 16 12 6 310 317 318 304 231 179 210 239 208 32 22 21 323 277 356 12 359 346 344 343 339 355 353 345 358 3 9 8 8 36 35 34 25 350 333 345 348 340 254 168 143 107 142 179 321 314 299 218 197 232 278 292 309 313 303 272 259 236 241 272 85 104 82 15 314 275 78 52 51 51 30 10 79 163 165 166 162 159 154 149 148
12 26 17 11 8 8 1 325 303 293 237 190 195 247 257 254 47 46 343 346 359 3 347 283 312 319 310 312 360 351 300 342 358 1 332 334 39 67 63 42 6 346 341 328 327 334 14 116 77 92 158 350 338 340 351 303 312 331 344 337 320 320 313 296 292 292 299 85 119 98 6 280 135 85 39 44 47 38 41 56 128 147 155 155 150 145 141 152
313 6 13 5 4 6 360 347 314 249 173 190 232 266 41 55 58 122 343 0 15 334 309 298 307 297 287 346 17 352 326 78 7 350 333 343 28 54 57 39 16 0 328 317 338 343 306 169 38 13 1 353 0 14 350 314 307 318 340 315 301 329 331 307 310 316 309 311 294 140 323 306 115 84 50 65 67 65 71 82 100 119 135 135 136 142 146 168
265 263 12 4 2 4 3 357 335 185 173 224 271 38 64 66 56 28 10 356 336 325 315 302 301 290 296 106 121 42 12 30 10 357 4 20 30 24 24 26 17 7 347 341 5 327 297 299 66 44 345 354 10 28 319 303 294 285 299 292 310 351 327 288 295 307 297 299 295 171 111 46 77 101 96 90 89 92 95 105 115 123 130 134 147 156 162 192
218 194 18 5 1 1 3 359 1 152 205 257 52 62 53 62 30 3 16 336 312 319 308 296 313 331 7 19 80 59 48 269 331 333 68 67 49 42 39 35 16 10 15 353 327 323 313 308 113 116 72 39 24 349 330 327 316 300 301 333 357 330 294 288 287 267 251 276 283 138 102 99 125 123 115 121 108 105 117 128 134 139 143 155 167 160 171 244
174 183 32 5 360 359 359 4 27 165 232 349 69 74 45 63 24 358 11 334 315 303 304 321 38 355 352 346 3 11 350 296 332 329 23 76 60 46 34 58 38 13 21 343 310 33 331 296 293 102 80 91 85 292 309 307 300 319 352 358 334 278 244 272 277 281 286 285 289 87 85 189 189 134 129 150 142 138 150 149 151 156 163 178 175 166 225 294
177 191 124 5 360 358 360 13 9 272 242 67 76 92 51 57 43 2 1 329 299 272 312 2 34 351 346 344 346 351 339 337 346 343 3 25 27 33 13 35 64 23 10 310 290 39 330 295 328 89 345 111 168 233 254 199 239 6 17 329 320 301 289 293 293 309 309 296 298 45 108 259 239 89 110 124 110 150 165 164 173 178 184 195 187 203 286 306
189 206 145 2 359 12 26 28 319 304 72 80 77 100 65 57 82 33 2 329 292 285 342 25 16 354 9 340 332 347 354 348 337 336 5 6 8 42 26 359 355 357 355 312 293 337 313 289 302 170 207 161 186 244 333 36 113 100 237 331 13 327 308 322 312 305 302 295 301 308 276 352 69 74 80 74 49 59 160 174 190 192 188 192 289 312 318 320
276 212 51 357 354 30 36 32 35 30 61 70 56 82 70 79 103 74 16 336 306 314 8 17 344 343 353 335 327 349 346 331 328 333 5 9 15 55 48 16 334 335 333 295 279 325 302 267 294 299 254 225 175 18 9 10 17 3 339 360 6 332 303 302 283 292 309 295 303 308 302 36 84 63 60 69 51 36 65 173 186 167 154 332 321 313 317 317
289 172 21 352 352 10 9 28 47 36 65 77 67 84 61 42 94 91 125 262 291 14 7 347 347 344 340 336 337 344 325 317 327 337 1 24 26 40 49 25 335 327 321 285 267 348 337 281 293 305 304 323 49 59 33 7 6 5 359 3 357 348 341 300 289 77 358 293 316 309 299 61 96 66 59 69 63 53 48 59 130 121 101 305 310 313 313 310
328 101 350 345 359 11 360 53 54 15 73 77 56 80 48 9 40 72 135 201 257 246 240 315 352 340 344 345 330 331 331 316 330 350 2 35 29 27 39 5 324 307 307 309 62 27 344 288 283 293 303 27 80 77 59 14 343 15 37 29 359 343 344 307 306 358 328 284 266 280 281 95 99 82 69 67 76 82 74 59 65 267 300 308 309 310 309 309
32 77 355 349 351 293 12 76 74 33 73 84 45 85 41 2 28 98 122 47 277 272 281 12 11 337 21 3 321 328 346 323 324 5 10 31 44 51 30 343 313 296 306 321 40 23 305 266 287 294 294 108 110 106 112 174 255 260 67 44 13 349 339 296 304 333 308 291 298 285 289 76 115 105 87 100 109 114 120 102 284 285 302 308 308 308 307 306
55 92 13 8 15 348 45 73 95 88 90 132 123 92 74 22 28 14 35 27 9 321 334 28 29 344 345 341 296 316 343 336 8 44 20 357 39 105 35 343 323 337 3 11 357 348 315 307 324 315 316 38 126 137 156 204 282 333 42 58 45 15 318 276 281 278 264 325 1 304 298 43 130 151 143 141 152 175 184 219 277 293 303 304 307 308 302 299
104 99 38 21 31 52 70 43 93 115 119 130 106 73 77 105 45 353 11 32 13 334 337 24 17 301 292 293 268 287 317 303 347 33 15 351 56 140 143 331 303 347 32 26 329 322 301 305 327 329 329 330 322 327 338 321 313 320 20 84 75 31 308 290 285 262 260 18 6 296 297 35 130 169 173 163 173 212 264 284 290 299 304 305 308 307 302 304
158 61 58 22 35 53 72 26 43 106 126 120 96 45 8 65 108 198 280 26 36 343 318 334 329 263 289 325 312 298 302 227 267 329 339 338 8 91 122 194 274 340 32 325 286 289 287 286 327 335 318 312 313 316 331 334 307 301 319 359 36 70 299 286 281 283 323 339 324 329 356 340 310 292 211 179 203 284 301 304 305 307 309 309 307 304 305 308
26 58 23 358 60 64 73 51 27 58 92 335 55 41 6 24 93 163 213 75 48 334 280 249 11 355 348 345 333 325 335 314 251 328 338 323 334 349 153 190 275 282 158 223 225 264 291 293 26 353 297 286 295 300 310 313 290 294 311 313 306 344 258 266 281 310 334 310 297 1 354 316 307 317 311 193 297 311 308 308 308 310 309 307 306 303 303 306
31 102 354 328 26 52 57 42 22 47 52 28 78 53 6 29 42 24 39 120 167 309 281 203 38 21 5 340 323 332 339 334 337 111 355 336 331 325 233 185 221 208 197 203 101 354 300 302 66 352 291 289 289 287 299 300 288 293 299 294 290 285 244 254 280 301 311 288 296 323 324 307 304 314 339 62 327 309 305 305 306 308 308 306 307 306 305 310
60 107 69 332 40 61 49 357 327 48 54 41 82 55 13 26 33 29 30 276 200 95 345 333 6 8 4 331 313 334 349 342 332 8 24 4 321 320 327 178 181 347 348 3 52 56 282 304 82 281 291 293 271 231 259 283 293 294 280 270 274 271 268 268 276 276 263 276 293 309 309 304 308 329 47 12 315 299 300 306 308 309 309 308 308 306 307 313
103 113 108 101 92 72 44 300 287 63 65 26 50 54 7 8 22 27 16 326 353 46 1 345 350 346 338 316 313 337 7 338 306 302 323 326 311 321 1 11 4 344 353 14 20 325 302 2 99 239 288 283 170 218 276 288 299 292 234 209 255 275 268 254 262 269 264 278 296 306 304 304 327 54 11 308 298 297 306 313 313 311 310 310 309 307 309 313
72 89 130 119 92 25 335 22 289 24 65 29 29 47 359 15 20 349 301 22 355 360 356 341 336 327 261 225 320 358 10 330 300 304 310 303 312 334 345 354 348 329 343 16 354 324 336 328 197 274 306 324 125 307 318 332 320 261 215 214 250 275 274 260 264 270 276 296 306 304 301 309 9 10 315 298 304 312 316 319 315 308 308 308 307 309 312 313
89 80 10 98 88 13 329 53 346 34 59 27 24 29 345 19 17 306 304 117 134 11 5 328 321 317 288 4 20 9 348 321 304 314 316 285 283 298 303 326 332 316 331 352 311 336 355 320 327 339 318 329 350 331 328 334 255 227 192 213 257 287 293 287 278 270 280 302 306 297 301 321 331 322 309 309 316 319 318 318 313 307 306 305 305 308 312 311